Overview Statistics Trail Chart Weather Telemetry Raw packets
 

This is the latest recevied weather packets stored in our database for station/object IZ5ILU-16. If no packets are shown the sender has not sent any weather packets the latest 10 day(s).

<< 25 26 27 28 29 30 31 >>
Time Temp. Humidity Pressure Rain* Wind** Luminosity Snow
1788288704 26.11° C 60% 1017.8 hPa 0 mm - - -
1788288104 26.67° C 60% 1017.7 hPa 0 mm - - -
1788287504 26.67° C 58% 1017.7 hPa 0 mm - - -
1788286904 26.67° C 58% 1017.7 hPa 0 mm - - -
1788286304 27.22° C 58% 1017.7 hPa 0 mm - - -
1788285704 27.78° C 56% 1017.7 hPa 0 mm - - -
1788285104 27.78° C 54% 1017.7 hPa 0 mm - - -
1788284504 28.33° C 52% 1017.6 hPa 0 mm - - -
1788283904 28.33° C 47% 1017.5 hPa 0 mm - - -
1788283304 28.89° C 45% 1017.5 hPa 0 mm - - -
1788282704 29.44° C 42% 1017.3 hPa 0 mm - - -
1788282104 30° C 41% 1017.3 hPa 0 mm - - -
1788281504 30.56° C 40% 1017.4 hPa 0 mm - - -
1788280904 31.11° C 38% 1017.5 hPa 0 mm - - -
1788280304 31.67° C 38% 1017.5 hPa 0 mm - - -
1788279704 31.67° C 40% 1017.5 hPa 0 mm - - -
1788279104 31.67° C 41% 1017.5 hPa 0 mm - - -
1788278504 31.67° C 43% 1017.5 hPa 0 mm - - -
1788277906 31.67° C 42% 1017.5 hPa 0 mm - - -
1788277304 31.67° C 41% 1017.6 hPa 0 mm - - -
1788276704 31.67° C 46% 1017.5 hPa 0 mm - - -
1788276104 31.67° C 44% 1017.5 hPa 0 mm - - -
1788275504 31.67° C 45% 1017.6 hPa 0 mm - - -
1788274904 31.11° C 50% 1017.6 hPa 0 mm - - -
1788274304 31.11° C 51% 1017.6 hPa 0 mm - - -

* Rain latest hour (hover to see other rain measurements)
** Current wind speed in m/s (hover to see current wind gust speed)